[[{"header":{"parameterUnit":"m.s-1","parameterCategory":1,"la1":30.2991,"la2":30.254,"lo1":-89.0895,"lo2":-89.0444,"dy":0.0017,"dx":0.0017,"nx":28,"ny":28,"refTime":"2024-10-21T21:00:00:Z","depth":0,"parameterNumber":2,"parameterNumberName":"U-component_of_WINDS"},"data":[0,0,0,0,0,0,0,0,0,0,0,0,0,0,0,0,0,0,0,0,0,0,0,0,0,0,0,0,0,0,0,0,0,0,0,0,0,0,0,0,0,0,0,0,0,0,0,0,0,0,0,0,0,0,0,0,0,0,0.5158,0.5158,0,0.5178,0.5178,0.5179,0.5216,0.5216,0.5217,0.5218,0.5236,0.5236,0.5236,0,0,0,0,0,0,0,0,0,0,0,0,0,0.5149,0.5149,0.5158,0.5158,0.5158,0.5178,0.5178,0.5179,0.5215,0.5216,0.5217,0.5218,0.5237,0.5236,0.5236,0,0,0,0,0,0,0,0,0,0,0,0,0,0.5159,0.5149,0.5158,0.5179,0.5181,0.5178,0.5178,0.5179,0.5215,0.5216,0.5217,0.5218,0.5237,0.5236,0.5236,0.5213,0,0,0.5235,0.5235,0,0,0,0,0,0,0,0,0.5159,0.516,0.5176,0.5177,0.518,0.5195,0.5182,0.519,0.5215,0.5202,0.5218,0.5219,0.5222,0.5223,0.5224,0.5214,0.5215,0.5235,0.5235,0.5235,0.5235,0,0,0,0,0,0,0,0.5158,0.5159,0.5166,0.5176,0.5178,0.5187,0.519,0.5184,0.5206,0.5203,0.5206,0.5208,0.5223,0.5224,0.5225,0.5215,0.5235,0.5235,0.5235,0.5235,0.5187,0.5186,0,0,0,0,0,0,0.5154,0.5158,0.5165,0.5166,0.5172,0.5186,0.5189,0.5189,0.5206,0.5209,0.5207,0.521,0.5224,0.5225,0.5226,0.5199,0.5235,0.5235,0.5235,0.5188,0.5187,0.5186,0,0,0,0,0,0,0.5154,0.5155,0.5164,0.5163,0.5165,0.5185,0.5185,0.5189,0.519,0.5209,0.5213,0.5205,0.5225,0.5226,0.5216,0.52,0.5235,0.5235,0.519,0.5188,0.5186,0.5146,0,0,0,0,0,0,0.5153,0.5154,0.5146,0.5163,0.5165,0.5154,0.5184,0.5189,0.519,0.5194,0.5207,0.5211,0.5226,0.5216,0.5216,0.5201,0.5234,0.5191,0.5189,0.5187,0.5149,0.5143,0.5139,0,0,0,0,0,0.5153,0.5133,0.5145,0.5146,0.5155,0.5153,0.5155,0.5174,0.5189,0.518,0.5192,0.521,0.5203,0.5215,0.5215,0.5199,0.5192,0.5189,0.5187,0.5151,0.5145,0.5139,0,0,0,0,0,0,0.5113,0.5136,0.5149,0.5135,0.5142,0.516,0.5149,0.5166,0.5168,0.5171,0.5194,0.5197,0.5184,0.5191,0.5204,0.5178,0.52,0.5198,0.5173,0.5167,0.5162,0.5159,0.5234,0,0,0,0,0,0.5103,0.5101,0.512,0.5106,0.5109,0.5128,0.5129,0.5143,0.5151,0.5154,0.5165,0.5172,0.5171,0.517,0.517,0.5151,0.5154,0.5141,0.5135,0.5131,0.5128,0.5117,0.5111,0.5177,0.5177,0.5177,0,0,0.5081,0.5094,0.509,0.5098,0.5105,0.5101,0.5131,0.5125,0.5122,0.5153,0.5144,0.5153,0.5162,0.5147,0.5141,0.5152,0.511,0.5128,0.5124,0.5123,0.5114,0.5108,0.5102,0.5176,0.5176,0.5176,0,0,0.5039,0.5049,0.5037,0.5044,0.5056,0.5069,0.5066,0.5082,0.5089,0.5081,0.5103,0.51,0.5099,0.5104,0.5106,0.5068,0.5084,0.5068,0.5039,0.5029,0.5024,0.5019,0.5004,0.4998,0.5065,0.5065,0.5065,0,0.501,0.5006,0.5029,0.5022,0.5024,0.5053,0.5041,0.5047,0.5057,0.5058,0.5071,0.507,0.5078,0.5064,0.5055,0.5057,0.5053,0.5065,0.5023,0.5018,0.5014,0.5,0.4994,0.5063,0.5063,0.5063,0.5063,0,0.4969,0.4966,0.4955,0.4965,0.4967,0.4957,0.4978,0.4977,0.4992,0.5003,0.4994,0.5006,0.5009,0.5007,0.5021,0.4995,0.5002,0.5019,0.5041,0.5006,0.4992,0.4987,0.5059,0.506,0.5061,0.5061,0,0,0.49,0.4924,0.492,0.4924,0.494,0.4937,0.4929,0.4933,0.4931,0.4938,0.493,0.4929,0.4945,0.4948,0.4963,0.4954,0.4921,0.4972,0.4973,0.496,0.4892,0.4877,0.487,0.4933,0.4932,0.4932,0.489,0,0.4859,0.4847,0.4868,0.4851,0.4847,0.4876,0.4869,0.4877,0.4889,0.4887,0.49,0.4898,0.492,0.4922,0.4915,0.4927,0.4907,0.493,0.4925,0.4925,0.4919,0.4864,0.4848,0.4809,0.4886,0.4885,0.4884,0,0.481,0.4815,0.4797,0.4814,0.4813,0.4806,0.4811,0.481,0.482,0.4829,0.4833,0.4851,0.4844,0.4868,0.4857,0.4873,0.4872,0.4878,0.4877,0.4875,0.49,0.4858,0.4797,0.479,0.4877,0.4877,0.4878,0,0.4758,0.4761,0.4751,0.4754,0.4774,0.4768,0.4776,0.4787,0.4788,0.4793,0.4793,0.4797,0.4798,0.48,0.4819,0.4835,0.4806,0.4831,0.4812,0.4811,0.4802,0.4802,0.4737,0.4806,0.4806,0.4806,0.4806,0,0.4709,0.4697,0.4728,0.4721,0.4708,0.4733,0.4719,0.473,0.474,0.4735,0.4761,0.4755,0.4782,0.4779,0.4794,0.4782,0.4783,0.4789,0.4793,0.4786,0.4784,0.4783,0.4786,0.4804,0.4805,0.4805,0.4805,0,0.4648,0.4669,0.4659,0.4679,0.4684,0.4673,0.469,0.4684,0.4699,0.4692,0.4692,0.4714,0.4712,0.4732,0.4735,0.4745,0.4725,0.4735,0.4722,0.4724,0.4702,0.4703,0.4632,0.4624,0.47,0.4699,0.4699,0,0.4614,0.4605,0.4625,0.4624,0.4631,0.4629,0.463,0.4655,0.4655,0.4667,0.4659,0.466,0.4662,0.4659,0.4674,0.4676,0.4684,0.466,0.4685,0.4677,0.4681,0.468,0.4679,0.4653,0.4652,0.4652,0.4651,0,0.4551,0.4562,0.4563,0.4568,0.4569,0.4574,0.4581,0.4578,0.4605,0.4604,0.4604,0.4605,0.4608,0.4608,0.4614,0.4621,0.4639,0.4644,0.4639,0.463,0.4621,0.4623,0.4705,0.4644,0.4645,0.4646,0.4646,0.4646,0.45,0.4494,0.4506,0.4507,0.4515,0.4521,0.4516,0.453,0.4531,0.4535,0.455,0.4547,0.4558,0.4567,0.4573,0.457,0.4582,0.4575,0.4573,0.457,0.4565,0.4624,0.4571,0.4571,0.4572,0.4572,0.4572,0,0.4436,0.4446,0.4447,0.4456,0.4456,0.4476,0.4485,0.4483,0.448,0.4489,0.4491,0.449,0.4491,0.4507,0.4509,0.4504,0.4513,0.4504,0.4503,0.4504,0.4555,0.4558,0.4496,0.4496,0.4496,0.4497,0.4497,0.4497,0.4402,0.4392,0.4404,0.4398,0.4408,0.4405,0.4408,0.4414,0.4421,0.4419,0.442,0.4431,0.4443,0.4447,0.4448,0.4453,0.4451,0.4439,0.4446,0.4493,0.45,0.4507,0.451,0.4439,0.4439,0.4394,0.4394,0.4394]},{"header":{"parameterUnit":"m.s-1","parameterCategory":1,"la1":30.2991,"la2":30.254,"lo1":-89.0895,"lo2":-89.0444,"dy":0.0017,"dx":0.0017,"nx":28,"ny":28,"refTime":"2024-10-21T21:00:00:Z","depth":0,"parameterNumber":3,"parameterNumberName":"V-component_of_WINDS"},"data":[0,0,0,0,0,0,0,0,0,0,0,0,0,0,0,0,0,0,0,0,0,0,0,0,0,0,0,0,0,0,0,0,0,0,0,0,0,0,0,0,0,0,0,0,0,0,0,0,0,0,0,0,0,0,0,0,0,0,-0.4407,-0.4408,0,-0.4559,-0.4561,-0.4563,-0.4634,-0.4634,-0.4634,-0.4634,-0.4793,-0.4797,-0.4802,0,0,0,0,0,0,0,0,0,0,0,0,0,-0.418,-0.4183,-0.4407,-0.4409,-0.441,-0.4559,-0.4561,-0.4563,-0.4634,-0.4634,-0.4634,-0.4634,-0.4792,-0.4797,-0.4802,0,0,0,0,0,0,0,0,0,0,0,0,0,-0.43,-0.4185,-0.4406,-0.4464,-0.447,-0.4559,-0.4561,-0.4564,-0.4634,-0.4634,-0.4634,-0.4634,-0.479,-0.4796,-0.4803,-0.4847,0,0,-0.4823,-0.4826,0,0,0,0,0,0,0,0,-0.4293,-0.4308,-0.4453,-0.446,-0.4467,-0.4577,-0.454,-0.4659,-0.4634,-0.4572,-0.4634,-0.4633,-0.4722,-0.4734,-0.4763,-0.4854,-0.4861,-0.4823,-0.4827,-0.483,-0.4832,0,0,0,0,0,0,0,-0.4284,-0.4302,-0.4467,-0.4455,-0.4464,-0.4483,-0.45,-0.4563,-0.4646,-0.4577,-0.4583,-0.46,-0.4726,-0.4757,-0.4767,-0.4863,-0.4823,-0.4829,-0.4833,-0.4836,-0.4999,-0.4999,0,0,0,0,0,0,-0.4266,-0.4295,-0.4462,-0.4472,-0.4378,-0.4487,-0.4506,-0.4542,-0.4646,-0.4661,-0.46,-0.4603,-0.4745,-0.476,-0.4773,-0.4832,-0.483,-0.4836,-0.484,-0.4999,-0.4999,-0.5,0,0,0,0,0,0,-0.4261,-0.4281,-0.4456,-0.4385,-0.4408,-0.4491,-0.4531,-0.4545,-0.4576,-0.4662,-0.4678,-0.4616,-0.4746,-0.4764,-0.4828,-0.4838,-0.4839,-0.4845,-0.4998,-0.4999,-0.4999,-0.4949,0,0,0,0,0,0,-0.4254,-0.4278,-0.4295,-0.4384,-0.4412,-0.4507,-0.4532,-0.4549,-0.4587,-0.4592,-0.4682,-0.4696,-0.4747,-0.4818,-0.4834,-0.4847,-0.485,-0.4998,-0.4998,-0.4999,-0.495,-0.4948,-0.4946,0,0,0,0,0,-0.4246,-0.4276,-0.4296,-0.4316,-0.4435,-0.4508,-0.4524,-0.458,-0.4588,-0.4606,-0.4661,-0.4694,-0.4834,-0.4824,-0.4843,-0.4858,-0.4997,-0.4998,-0.4999,-0.4951,-0.4948,-0.4946,0,0,0,0,0,0,-0.4187,-0.4288,-0.4312,-0.4371,-0.443,-0.4519,-0.4544,-0.4576,-0.4635,-0.4637,-0.4706,-0.4726,-0.4784,-0.4827,-0.4814,-0.4906,-0.4919,-0.4924,-0.4876,-0.4874,-0.4872,-0.486,-0.4856,0,0,0,0,0,-0.418,-0.423,-0.4317,-0.436,-0.4389,-0.4461,-0.4495,-0.4533,-0.4598,-0.4624,-0.4684,-0.4746,-0.4804,-0.4841,-0.49,-0.4957,-0.4978,-0.4977,-0.4974,-0.4972,-0.4976,-0.501,-0.5011,-0.5003,-0.5003,-0.5003,0,0,-0.4168,-0.423,-0.4257,-0.435,-0.44,-0.4451,-0.4482,-0.4534,-0.4573,-0.4632,-0.4696,-0.4742,-0.4816,-0.4876,-0.4906,-0.4915,-0.4983,-0.4974,-0.4971,-0.4976,-0.5011,-0.5012,-0.5012,-0.5003,-0.5003,-0.5003,0,0,-0.4171,-0.4223,-0.4265,-0.4314,-0.439,-0.4438,-0.4448,-0.4533,-0.4565,-0.463,-0.4675,-0.4723,-0.4822,-0.4873,-0.4912,-0.4934,-0.4966,-0.4951,-0.494,-0.4973,-0.4973,-0.4974,-0.4983,-0.4985,-0.4954,-0.4954,-0.4954,0,-0.4147,-0.4225,-0.4283,-0.4333,-0.4373,-0.4427,-0.4471,-0.4517,-0.4608,-0.4635,-0.4642,-0.4768,-0.4821,-0.4895,-0.49,-0.493,-0.4944,-0.4942,-0.4968,-0.497,-0.4972,-0.4981,-0.4984,-0.4952,-0.4952,-0.4952,-0.4953,0,-0.4191,-0.4244,-0.427,-0.4355,-0.4398,-0.4444,-0.4511,-0.4547,-0.4582,-0.4629,-0.4695,-0.4761,-0.4834,-0.4854,-0.4889,-0.4932,-0.4935,-0.4955,-0.4969,-0.4969,-0.4979,-0.4983,-0.4949,-0.4949,-0.495,-0.4951,0,0,-0.4163,-0.4279,-0.4287,-0.4326,-0.4413,-0.4456,-0.4506,-0.4576,-0.4606,-0.4667,-0.4711,-0.4793,-0.4811,-0.4855,-0.4896,-0.4924,-0.4939,-0.4941,-0.4944,-0.4939,-0.4992,-0.4977,-0.498,-0.496,-0.4961,-0.4962,-0.4986,0,-0.4179,-0.4269,-0.4322,-0.4391,-0.4441,-0.4493,-0.4537,-0.4595,-0.464,-0.4691,-0.4741,-0.4798,-0.4818,-0.4845,-0.4875,-0.493,-0.4951,-0.4929,-0.5003,-0.5005,-0.4984,-0.4985,-0.497,-0.499,-0.499,-0.4991,-0.4991,0,-0.421,-0.4268,-0.4341,-0.4422,-0.4446,-0.4483,-0.4552,-0.4599,-0.4667,-0.4698,-0.4746,-0.4787,-0.4843,-0.4851,-0.4929,-0.4913,-0.4947,-0.4979,-0.4981,-0.4991,-0.4999,-0.4996,-0.4998,-0.5001,-0.4998,-0.4997,-0.4997,0,-0.4182,-0.4279,-0.4336,-0.4368,-0.4464,-0.4489,-0.453,-0.4598,-0.4637,-0.4697,-0.4723,-0.4789,-0.4826,-0.4877,-0.4935,-0.4936,-0.5007,-0.5021,-0.5036,-0.5034,-0.5049,-0.5048,-0.5057,-0.5069,-0.5069,-0.5069,-0.5069,0,-0.4195,-0.4238,-0.4325,-0.4359,-0.4409,-0.4471,-0.4519,-0.4565,-0.4624,-0.4669,-0.4719,-0.476,-0.4834,-0.4885,-0.4931,-0.4989,-0.5005,-0.5033,-0.5045,-0.5029,-0.5026,-0.5053,-0.5053,-0.507,-0.5069,-0.5069,-0.5069,0,-0.4173,-0.4233,-0.4298,-0.4383,-0.4405,-0.4438,-0.4512,-0.4548,-0.4595,-0.4652,-0.4669,-0.4744,-0.4807,-0.487,-0.4955,-0.4986,-0.5043,-0.5059,-0.502,-0.5027,-0.5038,-0.5037,-0.5066,-0.5073,-0.5079,-0.5079,-0.5079,0,-0.4178,-0.4212,-0.43,-0.4334,-0.4374,-0.4427,-0.4466,-0.4528,-0.4568,-0.4647,-0.4674,-0.474,-0.4796,-0.4895,-0.4958,-0.5023,-0.5041,-0.5047,-0.5051,-0.5034,-0.5042,-0.504,-0.5044,-0.5045,-0.5044,-0.5044,-0.5044,0,-0.418,-0.4208,-0.4262,-0.4327,-0.4372,-0.4427,-0.4483,-0.4508,-0.4581,-0.4623,-0.4687,-0.473,-0.4816,-0.4882,-0.4955,-0.4999,-0.5034,-0.5042,-0.5049,-0.5034,-0.501,-0.5024,-0.5015,-0.5041,-0.5041,-0.5042,-0.5042,-0.5042,-0.4173,-0.4205,-0.4273,-0.4332,-0.438,-0.4431,-0.447,-0.4521,-0.4575,-0.465,-0.4683,-0.4748,-0.4816,-0.4917,-0.496,-0.5012,-0.5022,-0.5032,-0.5034,-0.5036,-0.5033,-0.5,-0.5026,-0.5026,-0.5026,-0.5026,-0.5026,0,-0.4178,-0.4224,-0.4277,-0.4354,-0.44,-0.4428,-0.4491,-0.4529,-0.4585,-0.4644,-0.4698,-0.4772,-0.4836,-0.4903,-0.4971,-0.5,-0.5018,-0.5016,-0.5015,-0.5025,-0.502,-0.5008,-0.5,-0.5,-0.5,-0.5,-0.5,-0.5,-0.4186,-0.4243,-0.4279,-0.4361,-0.4407,-0.4469,-0.4503,-0.4551,-0.4599,-0.4679,-0.4731,-0.4774,-0.4838,-0.491,-0.497,-0.4989,-0.5012,-0.5005,-0.5028,-0.5023,-0.5025,-0.5027,-0.5015,-0.5009,-0.5009,-0.5029,-0.5029,-0.5029]}]]